Location: Newark
(49.4500°N, 11.0833°E)
Time: 03:12:19
(UTC+00:00)

OTV 5 (USA 277) - Visible Passes

Search period start: 19 October 2019 00:00
Search period end: 29 October 2019 00:00
Orbit: 310 x 324 km, 54.5° (Epoch: 08 October)

Date Brightness Start Highest point End Pass type
(mag) Time Alt. Az. Time Alt. Az. Time Alt. Az.
19 Oct ? 03:19:36 17° ESE 03:19:36 17° ESE 03:20:24 10° ESE visible
19 Oct ? 04:50:31 13° WSW 04:51:38 15° SW 04:53:21 10° S visible
20 Oct ? 03:34:13 15° SE 03:34:13 15° SE 03:34:51 10° SE visible
